KI4KAO Weather Reports


time (UTC)temp
C
wind
direction
speed
KPH
gust
KPH
rain 1hr
cm
rain 24hr
cm
rain mn
cm
humidity
%
barometer
mb
20260504184030 22 180 8.0 14.5 0.00 0.00 0.00 52
20260504183029 23 164 6.4 11.3 0.00 0.00 0.00 50
20260504182029 22 166 8.0 12.9 0.00 0.00 0.00 53
20260504181048 22 145 6.4 14.5 0.00 0.00 0.00 52
20260504180049 21 168 4.8 11.3 0.00 0.00 0.00 53
20260504175029 21 171 4.8 9.7 0.00 0.00 0.00 54
20260504174028 21 137 4.8 8.0 0.00 0.00 0.00 57
20260504173029 21 170 3.2 8.0 0.00 0.00 0.00 54
20260504172029 21 140 4.8 6.4 0.00 0.00 0.00 59
20260504171029 21 164 4.8 8.0 0.00 0.00 0.00 59
20260504151027 15 127 3.2 4.8 0.00 0.00 0.00 87
20260504150107 15 158 1.6 4.8 0.00 0.00 0.00 89
20260504141027 10 0.0 0.0 0.00 0.00 0.00 99
20260504081047 3 0.0 0.0 0.00 0.00 0.00 97
20260504045028 5 0.0 0.0 0.00 0.00 0.00 89
20260504044027 5 0.0 0.0 0.00 0.00 0.00 88
20260504043028 5 0.0 0.0 0.00 0.00 0.00 88
20260504042027 5 0.0 0.0 0.00 0.00 0.00 87
20260504041028 5 0.0 0.0 0.00 0.00 0.00 87
20260504040047 5 0.0 0.0 0.00 0.00 0.00 89
20260504035048 5 0.0 0.0 0.00 0.00 0.00 89
20260504034027 5 0.0 0.0 0.00 0.00 0.00 87
20260504033027 5 0.0 0.0 0.00 0.00 0.00 85
20260504032028 5 0.0 0.0 0.00 0.00 0.00 85
20260504031027 5 0.0 0.0 0.00 0.00 0.00 85
20260504030028 5 0.0 0.0 0.00 0.00 0.00 84
20260504025047 6 0.0 0.0 0.00 0.00 0.00 83
20260504024148 6 0.0 0.0 0.00 0.00 0.00 80
20260504023048 6 0.0 0.0 0.00 0.00 0.00 79
20260504022048 6 0.0 0.0 0.00 0.00 0.00 79
20260504021048 7 0.0 0.0 0.00 0.00 0.00 77
20260504020028 7 0.0 0.0 0.00 0.00 0.00 75
20260504015048 7 0.0 0.0 0.00 0.00 0.00 74
20260504014027 8 0.0 0.0 0.00 0.00 0.00 74
20260504013027 8 0.0 0.0 0.00 0.00 0.00 70
20260504012028 8 0.0 0.0 0.00 0.00 0.00 69
20260504011048 9 0.0 0.0 0.00 0.00 0.00 68
20260504010027 9 0.0 0.0 0.00 0.00 0.00 66
20260504005028 10 0.0 0.0 0.00 0.00 0.00 62
20260504004027 10 0.0 0.0 0.00 0.00 0.00 61
20260504003028 11 0.0 0.0 0.00 0.00 0.00 60
20260504002027 11 0.0 0.0 0.00 0.00 0.00 56
20260504000547 11 0.0 0.0 0.00 0.00 0.00 55
20260503235528 12 307 1.6 3.2 0.00 0.00 0.00 56
20260503234528 12 338 0.0 1.6 0.00 0.00 0.00 54
20260503233528 12 270 0.0 1.6 0.00 0.00 0.00 54
20260503232528 13 264 1.6 4.8 0.00 0.00 0.00 52
20260503231527 13 262 3.2 4.8 0.00 0.00 0.00 49
20260503230528 13 267 3.2 6.4 0.00 0.00 0.00 50
20260503225628 15 272 3.2 4.8 0.00 0.00 0.00 47
20260503224527 15 272 4.8 8.0 0.00 0.00 0.00 39
20260503223527 16 151 3.2 8.0 0.00 0.00 0.00 43
20260503222527 16 224 1.6 4.8 0.00 0.00 0.00 42
20260503221527 17 214 3.2 8.0 0.00 0.00 0.00 32
20260503220547 17 176 3.2 4.8 0.00 0.00 0.00 34
20260503215607 17 193 1.6 4.8 0.00 0.00 0.00 34
20260503214527 18 54 4.8 6.4 0.00 0.00 0.00 30
20260503213548 17 148 4.8 6.4 0.00 0.00 0.00 34
20260503212547 18 227 1.6 4.8 0.00 0.00 0.00 32
20260503211527 17 127 3.2 6.4 0.00 0.00 0.00 33
20260503210527 18 187 4.8 9.7 0.00 0.00 0.00 31
20260503205527 17 164 3.2 8.0 0.00 0.00 0.00 32
20260503204547 17 167 6.4 14.5 0.00 0.00 0.00 31
20260503203527 17 38 3.2 4.8 0.00 0.00 0.00 29
20260503202627 17 352 4.8 9.7 0.00 0.00 0.00 29
20260503201547 17 124 8.0 12.9 0.00 0.00 0.00 29
20260503200527 18 169 4.8 6.4 0.00 0.00 0.00 31
20260503195527 18 120 6.4 9.7 0.00 0.00 0.00 30
20260503194527 17 47 4.8 8.0 0.00 0.00 0.00 29
20260503193526 17 101 4.8 8.0 0.00 0.00 0.00 29
20260503192547 17 336 4.8 9.7 0.00 0.00 0.00 28
20260503191527 17 52 4.8 6.4 0.00 0.00 0.00 26
20260503190527 17 121 4.8 6.4 0.00 0.00 0.00 31
20260503185527 16 59 3.2 6.4 0.00 0.00 0.00 33